Terminal Aerodrome Forecast
Issued by NWS

Home | Current Version | Previous Version | Text Only | Print | Product List | Glossary On
Versions: 1 2 3 4 5 6 7 8 9 10 11 12 13 14 15 16 17 18
000
FTUS42 KTAE 042203 AAB
TAFABY
TAF AMD
KABY 042203Z 0422/0518 22006KT P6SM SCT040
      TEMPO 0422/0423 18010G20KT
     FM050000 20003KT P6SM SCT250
     FM051400 23009KT P6SM SCT030=

USA.gov is the U.S. government's official web portal to all federal, state and local government web resources and services.